Location: Jackson Park
(37.2862°N, 79.9123°W)
Time: 01:57:34
(UTC+00:00)

Tiros 1 despin weight - Pass Details

Date: 13 May 2026
Orbit: 554 x 591 km, 48.2° (Epoch: 6 June)

Event Time Altitude Azimuth Distance (km) Brightness Sun altitude
Rises 17:04:00 0° 303° (WNW) 2,729 ? 71.0°
Reaches altitude 10° 17:06:14 10° 303° (WNW) 1,832 ? 71.1°
Maximum altitude 17:10:25 83° 217° (SW) 562 ? 71.2°
Drops below altitude 10° 17:14:37 10° 129° (SE) 1,833 ? 71.2°
Sets 17:16:51 0° 128° (SE) 2,730 ? 71.2°
